User: anonymous   Login
Location: Unspecified
(0.0000°N, 0.0000°E)
Time: 23:30:20
(UTC+00:00)
Language:

USA 274 DEB - Orbit

View from above orbital plane
View from above orbital plane
View from above satellite
View from above satellite

Ground track
Ground track

The orbit data is extracted from the following two-line orbital elements,

1 42065U 17011B   18260.84184538 0.00000000  00000-0  00000-0 0    08
2 42065  63.4388 152.7440 0078000 175.8235 184.1765 13.40764048    09
Epoch (UTC): 17 September 2018 20:12:15
Eccentricity: 0.0078000
inclination: 63.4388°
perigee height: 1048 km
apogee height: 1165 km
right ascension of ascending node: 152.7440°
argument of perigee: 175.8235°
revolutions per day: 13.40764048
mean anomaly at epoch: 184.1765°
orbit number at epoch: 0

The dashed part of the orbit path shows where the satellite is in the earth's shadow,  

DLR